Regional Weather Roundup
Issued by NWS

Home | Current Version | Previous Version | Graphics & Text | Print | Product List | Glossary On
Versions: 1 2 3 4 5 6 7 8 9 10 11 12 13 14 15 16 17 18 19 20 21 22 23 24 25 26 27
000
ASUS45 KSLC 170610
RWRUT

UTAH REGIONAL WEATHER ROUNDUP
NATIONAL WEATHER SERVICE SALT LAKE CITY UT
1200 AM MDT THU APR 17 2014

UTZ001>011-023>025-170700-

NORTHERN UTAH

CITY           SKY/WX    TMP DP  RH WIND       PRES   REMARKS
HILL AFB       CLEAR     43  15  32 E12       30.03S
LOGAN          CLEAR     38  23  55 CALM      30.03R
OGDEN          CLEAR     43  18  36 S7        30.02S
PROVO AIRPORT  CLEAR     43  25  49 E3        30.04S
SALT LAKE CITY PTCLDY    42  18  37 SW7       30.02S
VERNAL         CLEAR     44  16  32 E5        30.00R
WENDOVER       PTCLDY    46  18  31 W5        30.01S
HEBER CITY     CLEAR     32  19  59 SE5       30.05R WCI  27
WEST JORDAN    CLEAR     39  19  45 W5        30.04R

$$

UTZ012>022-026-027-170700-

SOUTHERN UTAH

CITY           SKY/WX    TMP DP  RH WIND       PRES   REMARKS
BRYCE CANYON   CLEAR     24  17  74 SW5       30.09R WCI  18
CEDAR CITY     CLEAR     43  20  39 N3        30.01R
MILFORD        CLEAR     37  17  44 SE3       30.01R
MOAB/CYNLANDS  CLEAR     43  20  39 NW7       29.95R
PRICE          CLEAR     46  14  27 N8        30.02R
ST GEORGE      CLEAR     68  25  19 S6        29.90R

$$

REGIONAL REPORTS     COLORADO/ARIZONA

CITY           SKY/WX    TMP DP  RH WIND       PRES   REMARKS
CRAIG, CO      PTCLDY    30  21  69 CALM      30.02R
GRAND JUNCTION CLEAR     41  22  46 E5        29.97R
RIFLE          PTCLDY    36  23  59 CALM      30.01R
MONTROSE       CLEAR     41  26  55 SE8       30.03R
CORTEZ         CLEAR     31  21  66 NE5       30.02R WCI  26
PAGE, AZ       NOT AVBL
GRAND CANYON   CLEAR     37  16  42 NE6       30.06R WCI  32
KINGMAN        CLEAR     59  13  16 S8        29.87S
FLAGSTAFF      CLEAR     37  15  40 CALM      30.07R

$$

REGIONAL REPORTS    NEVADA/IDAHO/WYOMING

CITY           SKY/WX    TMP DP  RH WIND       PRES   REMARKS
LAS VEGAS, NV  PTCLDY    76  20  12 S5        29.75R
ELY            PTCLDY    35  22  58 S7        30.05R WCI  29
ELKO           MOCLDY    42  28  57 CALM      30.01R
POCATELLO, ID  PTCLDY    40  14  34 S10       30.01R WCI  33
BURLEY         CLEAR     37  22  54 SW10      30.00S WCI  30
EVANSTON, WY   CLEAR     35  12  38 SW5       30.06S WCI  31
ROCK SPRINGS   PTCLDY    36  11  35 CALM      30.04S

$$



USA.gov is the U.S. government's official web portal to all federal, state and local government web resources and services.